Weather History for KROG - April, 2014

Change the Weather History Date:

Tuesday, April 1, 2014

  Actual Average Record
Temperature  
Mean Temperature 58 °F -  
Max Temperature 70 °F 61 °F 86 °F (2012)
Min Temperature 45 °F 42 °F 30 °F (2001)
Degree Days  
Heating Degree Days 8    
Growing Degree Days 8 (Base 50)    
Moisture  
Dew Point 45 °F    
Average Humidity 69    
Maximum Humidity 100    
Minimum Humidity 34    
Precipitation  
Precipitation 0.00 in - - ()
Sea Level Pressure  
Sea Level Pressure 29.99 in    
Wind  
Wind Speed 7 mph (East)    
Max Wind Speed 16 mph    
Max Gust Speed 17 mph    
Visibility 8 miles    
Events      
Averages and records for this station are not official NWS values.
T = Trace of Precipitation, MM = Missing Value Source: NWS Daily Summary

Daily Weather History Graph

Daily Weather History Graph

Search for Another Location

Airport or City:

Trip Planner

Search our weather history database for the weather conditions in past years. The results will help you decide how hot, cold, wet, or windy it might be!

Date:

Astronomy

Apr. 01, 2014 Rise Set
Actual Time 7:02 AM CDT 7:38 PM CDT
Civil Twilight 6:36 AM CDT 8:04 PM CDT
Nautical Twilight 6:06 AM CDT 8:35 PM CDT
Astronomical Twilight 5:34 AM CDT 9:06 PM CDT
Moon 8:09 AM CDT (4/1) 9:57 PM CDT (4/1)
Length of Visible Light 13h 27m
Length of Day
12h 36m
Waxing Crescent, 5% of the Moon is Illuminated
Apr 1
Waxing Crescent
Apr 7
First Quarter
Apr 15
Full
Apr 22
Last Quarter
Apr 29
New

Hourly Weather History & Observations

Time (CDT) Temp. Windchill Dew Point Humidity Pressure Visibility Wind Dir Wind Speed Gust Speed Precip Events Conditions
12:41 AM 51.8 °F - 48.2 °F 88% 30.01 in 1.5 mi South 3.5 mph - N/A   Clear
12:49 AM 51.8 °F - 50.0 °F 94% 30.01 in 4.0 mi South 4.6 mph - N/A   Clear
12:57 AM 53.1 °F - 51.1 °F 93% 30.00 in 9.0 mi SW 3.5 mph - N/A   Clear
1:06 AM 51.8 °F - 51.8 °F 100% 30.01 in 2.0 mi West 3.5 mph - N/A   Clear
1:11 AM 51.8 °F - 51.8 °F 100% 30.01 in 1.8 mi WNW 3.5 mph - N/A   Clear
1:22 AM 51.8 °F - 50.0 °F 94% 30.01 in 2.0 mi NW 5.8 mph - N/A   Clear
1:29 AM 51.8 °F - 50.0 °F 94% 30.01 in 3.0 mi NNW 4.6 mph - N/A   Clear
1:48 AM 50.0 °F - 48.2 °F 94% 30.02 in 2.5 mi NW 10.4 mph - N/A   Partly Cloudy
1:57 AM 51.8 °F - 50.0 °F 94% 30.02 in 5.0 mi NW 8.1 mph - N/A   Partly Cloudy
1:59 AM 51.1 °F - 50.0 °F 96% 30.01 in 6.0 mi NW 6.9 mph - N/A   Partly Cloudy
2:57 AM 51.1 °F - 43.0 °F 74% 30.03 in 10.0 mi NNW 6.9 mph - N/A   Clear
5:57 AM 45.0 °F 41.2 °F 30.9 °F 58% 30.05 in 10.0 mi NNE 6.9 mph - N/A   Overcast
6:57 AM 45.0 °F 42.6 °F 33.1 °F 63% 30.07 in 10.0 mi NNE 4.6 mph - N/A   Overcast
7:57 AM 45.0 °F 40.1 °F 30.0 °F 56% 30.08 in 10.0 mi NE 9.2 mph - N/A   Overcast
8:57 AM 46.9 °F - 28.9 °F 50% 30.08 in 10.0 mi NE 6.9 mph - N/A   Overcast
9:57 AM 51.1 °F - 27.0 °F 39% 30.08 in 10.0 mi ENE 16.1 mph - N/A   Overcast
10:57 AM 53.1 °F - 27.0 °F 37% 30.07 in 10.0 mi ENE 9.2 mph - N/A   Overcast
11:12 AM 53.6 °F - 28.4 °F 38% 30.08 in 10.0 mi East 9.2 mph - N/A   Overcast
11:57 AM 55.0 °F - 28.0 °F 35% 30.05 in 10.0 mi East 12.7 mph 17.3 mph N/A   Overcast
12:57 PM 59.0 °F - 30.2 °F 34% 30.03 in 10.0 mi ENE 10.4 mph - N/A   Overcast
12:59 PM 59.0 °F - 32.0 °F 36% 30.03 in 10.0 mi East 11.5 mph - N/A   Overcast
1:57 PM 62.1 °F - 35.1 °F 37% 30.01 in 10.0 mi East 5.8 mph - N/A   Overcast
2:57 PM 64.0 °F - 37.9 °F 38% 29.99 in 10.0 mi Variable 4.6 mph - N/A   Overcast
3:57 PM 68.0 °F - 54.0 °F 61% 29.97 in 10.0 mi South 10.4 mph - N/A   Overcast
4:01 PM 68.0 °F - 53.6 °F 60% 29.96 in 10.0 mi South 11.5 mph - N/A   Mostly Cloudy
4:57 PM 69.1 °F - 55.0 °F 61% 29.94 in 10.0 mi South 12.7 mph - N/A   Scattered Clouds
5:57 PM 69.1 °F - 53.1 °F 57% 29.93 in 10.0 mi South 13.8 mph - N/A   Partly Cloudy
6:57 PM 70.0 °F - 53.1 °F 55% 29.92 in 10.0 mi South 12.7 mph - N/A   Clear
7:57 PM 66.0 °F - 53.1 °F 63% 29.90 in 10.0 mi SSE 9.2 mph - N/A   Clear
8:57 PM 64.0 °F - 54.0 °F 70% 29.89 in 10.0 mi SE 10.4 mph - N/A   Clear
9:57 PM 57.0 °F - 55.0 °F 93% 29.85 in 9.0 mi ESE 8.1 mph - N/A   Scattered Clouds
10:57 PM 61.0 °F - 54.0 °F 78% 29.90 in 10.0 mi SE 8.1 mph - N/A   Clear
10:59 PM 57.9 °F - 55.0 °F 90% 29.84 in 8.0 mi East 6.9 mph - N/A   Mostly Cloudy
11:57 PM 60.1 °F - 54.0 °F 80% 29.92 in 10.0 mi ESE 4.6 mph - N/A   Clear
11:59 PM 57.9 °F - 55.9 °F 93% 29.85 in 8.0 mi East 6.9 mph - N/A   Overcast